Retour au catalogue

INTELSAT 4-F3

ActifCommunicationsGEO
NORAD 5709·PAYLOAD· XX

Lancé Dec 20, 1971 depuis Cape Canaveral Space Force Station

Loading…

TLE

FraisSource: Space-Track

Époque: Sep 14, 2026, 13:25 UTC

1  5709U 71116A   26257.55963082 -.00000169  00000-0  00000+0 0  9993
2  5709   6.1862 290.0909 0009579 127.1124  59.5530  0.99618957119768

Suivez INTELSAT 4-F3 en temps réel avec AllMySat

Download on the App Store